SCP
0 0 0 0 0 0 0 0 0 0 0 0 0 0 0 0 0 0 0 0 0 0 0 0 0 0 0 0 0 0 0 0 0 0 0 0 0 0 0 0 0 0 0 0
0 0 0 0 0 0 0 0 0 0 0 0 0 0 0 0 0 0 0 0 0 0 0 0 0 0 0 0 0 0 0 0 0 0 0 0 0 0 0 0 0 0 0 0
0 0 0 0 0 0 0 0 0 0 0 0 0 0 0 0 0 0 0 0 0 0 0 0 0 0 0 0 0 0 0 0 0 0 0 0 0 0 0 0 0 0 0 0
0 0 -0 0 0 0 0 0 0 0 0 0 0 0 0 0 0 0 0 0 0 0 0 0 0 0 0 0 0 0 0 0 0 0 0 0 0 0 0 0 0 0 0 0
0 0 0 0 0 0 0 0 0 0 0 0 0 0 -0 0 0 0 0 0 0 0 0 0 0 0 0 0 0 0 0 0 0 0 0 0 0 0 0 0 0 0 0 0
0 0 0 0 0 0 0 0 0 0 0 0 0 0 0 0 0 0 0 0 0 0 0 0 0 0 0 0 0 0 0 0 0 0 0 0 0 0 0 0 0 0 0 0
0 -0 0 0 0 0 0 0 0 0 0 0 0 0 0 0 0 0 0 0 0 0 0 0 0 0 0 0 0 0 0 0 0 0 0 0 0 0 0 0 0 0 0 0
-0 0 -0 -0 0 0 0 0 0 0 0 0 0 0 0 0 0 0 0 0 0 0 0 0 0 0 0 0 0 0 0 0 0 0 0 0 0 0 0 0 0 0 0 0
-0 -0 0 0 0 0 0 0 0 0 0 0 0 0 0 0 0 0 0 0 0 0 0 0 0 0 0 0 0 0 0 0 0 0 0 0 0 0 0 0 0 0 0 0
-0 0 0 -0 0 0 0 0 0 0 0 0 0 0 0 0 0 0 0 0 0 -0 0 0 0 0 0 0 0 0 0 0 0 0 0 0 0 0 0 0 0 0 0 0
0 -0 0 -0 0 0 0 0 0 0 0 0 0 0 0 0 0 0 0 0 0 0 0 0 0 0 0 0 0 0 0 0 0 0 0 0 0 0 0 0 0 0 0 0
-0 -0 0 -0 0 0 0 0 0 0 0 0 0 0 0 0 0 0 0 0 0 0 0 0 0 0 0 0 0 0 0 0 0 0 0 0 0 0 0 0 0 0 0 0
-0 -0 -0 -0 -0 -0 0 0 -0 0 0 0 0 0 0 0 0 0 0 0 0 0 0 0 0 0 0 0 0 0 0 0 0 0 0 0 0 0 0 0 0 0 0 0
-0 -0 0 -0 -0 -0 0 0 0 0 0 0 0 0 0 0 0 0 0 0 0 0 0 0 0 0 0 0 0 0 0 0 0 0 0 0 0 0 0 0 0 0 0 0
-0 -0 0 -0 -0 -0 -0 0 0 0 0 0 0 0 0 0 0 0 0 0 0 0 0 0 0 0 0 0 0 0 0 0 0 0 0 0 0 0 0 0 0 0 0 0
-0 -0 -0 -0 -0 0 -0 -0 0 0 0 0 0 0 0 0 0 0 0 0 0 0 0 0 0 0 0 0 0 0 0 0 0 0 0 0 0 0 0 0 0 0 0 0
-0 -0 -0 -0 0 0 0 -0 0 0 0 0 0 0 0 0 0 0 0 0 0 0 0 0 0 0 0 0 0 0 0 0 0 0 0 0 0 0 0 0 0 0 0 0
0 0 -0 -0 -0 0 0 -0 -0 0 -0 -0 0 0 0 0 0 0 0 0 0 0 0 0 0 0 0 0 0 0 0 0 0 0 0 0 0 0 0 0 0 0 0 0
-0 0 0 0 0 0 0 -0 0 0 0 -0 0 -0 0 -0 -0 -0 0 0 0 0 0 0 0 0 0 0 0 0 0 0 0 0 0 0 0 0 0 0 0 0 0 0
0 -0 0 0 0 0 0 -0 0 -0 0 0 0 0 0 0 0 0 -0 0 0 0 0 0 0 0 0 0 0 0 0 0 0 0 0 0 0 0 0 0 0 0 0 0
0 0 0 0 0 0 0 0 -0 0 -0 0 0 0 0 -0 -0 0 0 0 0 0 0 0 0 0 0 0 0 0 0 0 0 0 0 0 0 0 0 0 0 0 0 0
-0 0 0 0 0 0 0 0 0 0 0 0 -0 -0 0 -0 -0 -0 -0 -0 0 0 0 0 0 0 0 0 0 0 0 0 0 0 0 0 0 0 0 0 0 0 0 0
-0 0 0 0 0 0 -0 -0 -0 0 0 0 0 0 0 0 -0 0 0 0 -0 0 0 0 0 0 0 0 0 0 0 0 0 0 0 0 0 0 0 0 0 0 0 0
-0 -0 -0 0 -0 0 0 -0 -0 -0 -0 0 0 0 0 0 0 0 0 0 0 0 0 0 0 0 0 0 0 0 0 0 0 0 0 0 0 0 0 0 0 0 0 0
-0 -0 -0 -0 -0 -0 0 -0 0 0 0 0 0 -0 0 0 0 -0 0 -0 0 0 0 0 0 0 0 0 0 0 0 0 0 0 0 0 0 0 0 0 0 0 0 0
0 -0 -0 -0 -0 -0 -0 0 0 0 0 0 0 0 0 -0 -0 -0 0 0 0 0 0 0 0 0 0 0 0 0 0 0 0 0 0 0 0 0 0 0 0 0 0 0
Wind_Speed_500mb
11 14 37 57 54 51 40 42 38 25 18 28 40 56 34 26 32 36 47 47 68 75 70 76 87 91 90 87 89 87 85 87 92 90 84 79 80 79 74 71 66 63 61 58
7 31 48 38 42 45 51 52 48 35 17 23 24 41 15 18 21 37 43 50 64 66 67 69 68 70 84 94 100 98 94 95 96 95 91 89 86 83 75 70 70 69 65 59
28 25 21 39 47 50 44 50 54 33 12 34 15 45 30 15 13 38 49 60 59 70 76 80 76 73 69 83 93 100 104 103 100 98 97 92 86 82 80 79 79 76 68 64
18 44 38 38 41 34 51 39 48 46 30 37 19 34 24 37 41 27 48 58 67 71 74 76 76 77 70 65 81 82 97 104 102 103 103 102 100 96 91 87 83 77 73 69
21 18 22 27 51 49 32 18 31 32 27 23 20 16 24 28 28 31 38 59 63 76 80 80 77 71 80 73 62 70 90 99 103 108 105 103 101 97 91 89 83 79 76 73
43 48 27 47 46 37 40 25 40 37 28 38 40 33 43 17 34 28 28 56 70 77 78 77 75 78 77 78 77 84 89 99 103 108 105 105 104 103 96 89 84 83 79 73
15 31 20 27 17 10 14 30 20 29 29 39 40 32 41 14 36 42 42 48 66 66 66 67 70 76 75 76 77 72 79 92 103 106 105 106 106 102 97 87 83 82 82 78
8 17 7 12 27 8 14 9 6 15 10 24 11 19 20 49 39 31 55 67 65 73 76 75 73 67 66 64 71 72 75 85 98 104 106 106 105 101 97 88 81 78 77 73
6 11 11 14 16 38 12 14 6 11 6 4 6 9 13 12 28 43 42 52 55 32 35 45 51 53 51 53 58 62 72 80 90 98 104 105 104 102 97 88 79 71 66 64
8 24 10 10 12 23 19 14 4 8 4 9 5 5 11 6 19 27 19 9 18 22 29 39 48 55 60 63 62 62 66 75 84 93 99 102 103 99 91 81 77 70 63 60
15 9 16 9 3 7 13 13 11 10 8 5 5 8 7 10 8 11 13 19 24 33 29 27 30 32 35 38 48 56 63 72 79 86 95 100 98 90 82 77 71 65 61 61
9 9 9 35 7 11 7 8 7 7 5 3 7 9 8 10 11 9 12 26 25 20 22 19 18 18 17 21 31 40 50 60 66 72 83 88 86 81 77 71 65 60 57 57
10 8 17 20 4 8 6 6 7 9 5 10 10 9 11 21 19 17 15 38 35 26 24 21 15 13 12 14 21 26 36 46 53 60 68 71 70 69 67 62 58 56 55 54
10 6 11 13 26 22 13 17 6 8 7 7 9 2 28 32 26 27 35 39 30 26 26 21 14 9 9 9 13 18 24 30 39 49 59 63 64 62 60 58 56 54 54 53
6 10 3 20 24 4 9 10 16 12 5 4 4 9 12 21 22 25 33 38 39 33 29 22 13 3 6 9 13 21 26 32 39 46 51 54 55 54 53 53 53 54 52 50
4 9 8 11 6 22 24 29 25 16 16 8 9 8 17 17 23 23 35 39 37 36 32 23 10 8 14 18 21 24 30 36 40 41 44 45 46 47 48 47 48 49 48 45
5 4 10 9 1 6 9 14 16 12 17 5 19 10 17 17 14 16 34 42 44 42 31 23 15 11 16 20 19 24 27 29 32 35 37 39 41 42 42 43 44 44 42 40
5 3 4 9 12 10 2 3 2 15 15 14 6 18 21 19 21 5 49 42 48 45 35 21 10 15 16 15 20 21 23 26 28 29 31 31 32 34 36 37 35 32 36 40
19 5 5 3 5 1 3 10 9 7 6 20 15 24 22 45 11 11 61 48 43 40 29 18 7 13 17 20 24 24 26 28 28 28 29 30 32 33 34 33 32 33 34 35
10 8 4 7 7 2 5 14 20 1 5 12 19 20 21 30 12 9 61 48 44 39 27 15 4 7 11 17 21 21 23 24 25 26 27 29 28 25 21 25 27 30 33 33
4 4 4 6 5 7 12 24 14 9 9 22 25 23 23 9 11 38 37 37 36 34 27 14 3 6 10 14 18 21 19 17 17 18 20 21 20 22 25 23 21 21 24 24
6 7 5 4 7 5 35 6 9 7 20 29 26 28 33 32 31 32 31 32 33 31 24 15 5 8 11 12 11 11 11 13 14 15 16 17 17 16 16 17 17 17 18 19
7 5 6 7 3 6 14 14 12 22 20 22 28 35 31 31 32 29 29 28 28 26 21 13 6 2 5 6 8 11 12 13 14 13 12 10 9 12 15 16 16 16 15 14
8 9 2 7 4 4 11 8 26 29 25 29 29 30 32 35 32 30 28 28 26 22 19 14 9 4 2 4 7 8 8 8 8 10 10 10 11 13 11 11 11 10 11 11
3 10 8 3 5 4 2 24 29 27 23 24 24 26 30 32 32 30 27 23 21 20 19 16 12 9 7 2 2 5 5 5 8 9 9 9 8 9 11 12 13 14 13 11
1 3 0 2 3 4 7 27 29 22 24 25 27 27 27 28 29 27 25 24 21 18 17 13 9 7 6 6 4 6 8 10 9 8 8 9 10 11 12 13 12 13 13 13
Wind_Direction_500mb
278 226 233 236 226 238 249 240 248 236 215 210 226 248 235 228 230 233 237 237 242 241 244 241 242 244 247 244 242 239 237 233 226 224 220 222 225 225 225 226 228 230 229 228
256 238 244 260 276 254 236 244 242 252 210 229 245 259 222 224 239 230 234 242 241 248 246 245 248 244 243 246 244 241 238 234 231 228 226 225 226 226 228 228 229 228 228 229
232 251 262 242 255 261 258 228 234 237 209 235 243 261 252 248 254 257 249 251 252 253 257 259 253 249 248 242 241 242 240 236 231 228 226 226 228 228 226 226 227 226 226 229
234 248 244 239 235 235 257 242 236 238 237 239 174 260 236 235 240 236 249 249 254 253 255 259 257 254 253 247 239 241 240 237 234 228 226 227 229 227 229 230 229 227 228 229
239 234 223 229 234 229 246 268 276 235 233 246 215 257 254 235 237 234 239 246 246 251 254 253 256 259 255 251 243 246 243 238 233 231 228 228 229 232 235 233 230 228 228 229
248 255 251 240 252 239 227 239 261 250 243 247 235 226 258 211 225 236 233 238 239 242 250 255 257 260 263 260 251 248 243 239 233 231 229 230 229 231 230 230 229 227 227 229
256 253 253 217 227 162 190 208 230 216 217 237 223 216 231 213 215 225 232 233 241 240 244 250 258 260 256 253 254 244 240 237 233 231 230 231 231 232 233 231 230 226 226 226
293 323 153 189 226 161 181 201 209 232 213 219 163 212 226 224 236 244 235 243 256 251 250 254 259 262 260 255 252 248 241 238 234 233 232 231 232 231 231 231 232 231 230 232
299 267 272 251 204 199 197 228 140 346 339 99 192 278 304 191 223 233 239 246 254 273 268 264 264 261 259 256 253 254 246 238 238 234 231 229 229 228 228 228 230 231 232 231
285 295 244 301 176 191 185 152 160 186 273 221 242 267 225 251 217 232 244 267 294 295 286 277 269 261 255 254 256 253 249 244 240 234 231 229 227 226 226 225 227 227 227 227
279 227 288 330 300 192 166 178 182 187 202 97 348 275 269 241 259 279 338 339 331 319 319 306 293 281 269 254 247 242 238 237 234 231 228 226 223 222 221 221 222 224 226 224
264 288 288 289 267 201 249 155 143 152 175 120 132 273 331 328 326 305 338 338 334 330 334 332 320 311 293 264 244 235 233 234 233 231 228 222 216 214 213 214 217 221 221 219
310 320 319 332 4 106 322 199 165 110 87 192 143 259 359 6 15 357 330 353 347 347 347 345 333 320 292 265 247 234 228 229 229 225 217 211 207 205 205 209 212 213 212 214
336 287 211 279 291 305 303 7 7 152 147 180 232 347 352 355 351 345 349 350 350 344 347 336 331 311 277 243 230 224 215 214 212 204 199 196 196 197 201 205 206 209 212 217
70 279 260 288 298 294 24 19 30 67 18 167 291 91 358 345 325 346 343 349 355 348 338 339 323 288 193 165 166 168 173 173 177 179 182 184 188 192 197 201 205 209 214 219
354 292 315 294 49 72 54 31 46 48 19 38 29 74 9 324 328 353 356 356 356 351 343 317 292 190 173 161 155 163 165 166 172 178 183 187 191 195 197 202 208 213 217 221
264 286 345 274 64 253 32 13 20 80 39 343 36 322 321 331 353 359 357 356 348 344 341 317 264 219 197 175 169 180 177 182 182 185 188 190 192 196 203 209 214 216 219 224
228 73 249 282 339 47 177 329 286 91 52 29 1 341 333 317 285 39 14 357 350 344 343 326 276 230 215 190 189 190 190 190 193 192 193 199 204 203 203 205 210 219 227 230
204 170 287 350 31 195 7 11 352 2 26 21 1 350 347 346 121 209 358 359 354 349 344 334 281 234 223 216 215 217 198 188 186 192 195 197 198 198 203 209 214 221 227 231
167 208 351 338 70 32 305 326 321 349 4 11 13 353 347 341 22 328 343 357 1 2 358 352 331 234 219 208 205 202 197 192 188 186 191 200 204 203 205 215 219 225 228 230
7 12 202 288 94 323 343 318 328 62 274 351 357 340 345 355 322 319 344 2 8 5 10 17 61 168 185 191 189 196 197 195 200 201 202 205 207 204 208 211 217 229 232 233
8 325 13 5 59 317 342 10 64 285 320 338 348 351 344 349 350 353 359 6 11 18 24 33 74 144 161 182 201 216 212 205 210 213 206 203 202 203 209 216 216 224 232 232
26 1 348 9 81 95 58 77 358 357 326 341 345 352 355 0 1 359 1 6 12 18 20 31 39 139 188 201 206 220 219 211 206 204 204 208 220 225 220 216 212 213 217 218
355 10 35 207 75 140 71 3 3 357 347 349 1 357 360 2 8 10 8 6 10 13 14 18 20 2 299 222 217 219 216 210 212 215 218 224 214 214 212 212 207 204 205 203
253 335 324 45 56 100 106 11 355 356 359 6 15 9 7 8 13 13 13 14 10 10 14 17 24 21 13 360 213 196 191 237 232 227 224 220 219 218 209 202 196 191 185 182
298 219 7 278 133 300 314 339 352 4 8 13 13 22 23 20 19 15 10 11 11 10 6 7 4 352 3 331 285 245 225 221 229 231 226 212 199 204 201 194 186 183 181 176
Wind_Speed_850mb
11 14 37 57 54 51 40 42 38 25 18 28 40 56 34 26 32 36 47 47 68 75 70 76 87 91 90 87 89 87 85 87 92 90 84 79 80 79 74 71 66 63 61 58
7 31 48 38 42 45 51 52 48 35 17 23 24 41 15 18 21 37 43 50 64 66 67 69 68 70 84 94 100 98 94 95 96 95 91 89 86 83 75 70 70 69 65 59
28 25 21 39 47 50 44 50 54 33 12 34 15 45 30 15 13 38 49 60 59 70 76 80 76 73 69 83 93 100 104 103 100 98 97 92 86 82 80 79 79 76 68 64
18 44 38 38 41 34 51 39 48 46 30 37 19 34 24 37 41 27 48 58 67 71 74 76 76 77 70 65 81 82 97 104 102 103 103 102 100 96 91 87 83 77 73 69
21 18 22 27 51 49 32 18 31 32 27 23 20 16 24 28 28 31 38 59 63 76 80 80 77 71 80 73 62 70 90 99 103 108 105 103 101 97 91 89 83 79 76 73
43 48 27 47 46 37 40 25 40 37 28 38 40 33 43 17 34 28 28 56 70 77 78 77 75 78 77 78 77 84 89 99 103 108 105 105 104 103 96 89 84 83 79 73
15 31 20 27 17 10 14 30 20 29 29 39 40 32 41 14 36 42 42 48 66 66 66 67 70 76 75 76 77 72 79 92 103 106 105 106 106 102 97 87 83 82 82 78
8 17 7 12 27 8 14 9 6 15 10 24 11 19 20 49 39 31 55 67 65 73 76 75 73 67 66 64 71 72 75 85 98 104 106 106 105 101 97 88 81 78 77 73
6 11 11 14 16 38 12 14 6 11 6 4 6 9 13 12 28 43 42 52 55 32 35 45 51 53 51 53 58 62 72 80 90 98 104 105 104 102 97 88 79 71 66 64
8 24 10 10 12 23 19 14 4 8 4 9 5 5 11 6 19 27 19 9 18 22 29 39 48 55 60 63 62 62 66 75 84 93 99 102 103 99 91 81 77 70 63 60
15 9 16 9 3 7 13 13 11 10 8 5 5 8 7 10 8 11 13 19 24 33 29 27 30 32 35 38 48 56 63 72 79 86 95 100 98 90 82 77 71 65 61 61
9 9 9 35 7 11 7 8 7 7 5 3 7 9 8 10 11 9 12 26 25 20 22 19 18 18 17 21 31 40 50 60 66 72 83 88 86 81 77 71 65 60 57 57
10 8 17 20 4 8 6 6 7 9 5 10 10 9 11 21 19 17 15 38 35 26 24 21 15 13 12 14 21 26 36 46 53 60 68 71 70 69 67 62 58 56 55 54
10 6 11 13 26 22 13 17 6 8 7 7 9 2 28 32 26 27 35 39 30 26 26 21 14 9 9 9 13 18 24 30 39 49 59 63 64 62 60 58 56 54 54 53
6 10 3 20 24 4 9 10 16 12 5 4 4 9 12 21 22 25 33 38 39 33 29 22 13 3 6 9 13 21 26 32 39 46 51 54 55 54 53 53 53 54 52 50
4 9 8 11 6 22 24 29 25 16 16 8 9 8 17 17 23 23 35 39 37 36 32 23 10 8 14 18 21 24 30 36 40 41 44 45 46 47 48 47 48 49 48 45
5 4 10 9 1 6 9 14 16 12 17 5 19 10 17 17 14 16 34 42 44 42 31 23 15 11 16 20 19 24 27 29 32 35 37 39 41 42 42 43 44 44 42 40
5 3 4 9 12 10 2 3 2 15 15 14 6 18 21 19 21 5 49 42 48 45 35 21 10 15 16 15 20 21 23 26 28 29 31 31 32 34 36 37 35 32 36 40
19 5 5 3 5 1 3 10 9 7 6 20 15 24 22 45 11 11 61 48 43 40 29 18 7 13 17 20 24 24 26 28 28 28 29 30 32 33 34 33 32 33 34 35
10 8 4 7 7 2 5 14 20 1 5 12 19 20 21 30 12 9 61 48 44 39 27 15 4 7 11 17 21 21 23 24 25 26 27 29 28 25 21 25 27 30 33 33
4 4 4 6 5 7 12 24 14 9 9 22 25 23 23 9 11 38 37 37 36 34 27 14 3 6 10 14 18 21 19 17 17 18 20 21 20 22 25 23 21 21 24 24
6 7 5 4 7 5 35 6 9 7 20 29 26 28 33 32 31 32 31 32 33 31 24 15 5 8 11 12 11 11 11 13 14 15 16 17 17 16 16 17 17 17 18 19
7 5 6 7 3 6 14 14 12 22 20 22 28 35 31 31 32 29 29 28 28 26 21 13 6 2 5 6 8 11 12 13 14 13 12 10 9 12 15 16 16 16 15 14
8 9 2 7 4 4 11 8 26 29 25 29 29 30 32 35 32 30 28 28 26 22 19 14 9 4 2 4 7 8 8 8 8 10 10 10 11 13 11 11 11 10 11 11
3 10 8 3 5 4 2 24 29 27 23 24 24 26 30 32 32 30 27 23 21 20 19 16 12 9 7 2 2 5 5 5 8 9 9 9 8 9 11 12 13 14 13 11
1 3 0 2 3 4 7 27 29 22 24 25 27 27 27 28 29 27 25 24 21 18 17 13 9 7 6 6 4 6 8 10 9 8 8 9 10 11 12 13 12 13 13 13
Wind_Direction_850mb
278 226 233 236 226 238 249 240 248 236 215 210 226 248 235 228 230 233 237 237 242 241 244 241 242 244 247 244 242 239 237 233 226 224 220 222 225 225 225 226 228 230 229 228
256 238 244 260 276 254 236 244 242 252 210 229 245 259 222 224 239 230 234 242 241 248 246 245 248 244 243 246 244 241 238 234 231 228 226 225 226 226 228 228 229 228 228 229
232 251 262 242 255 261 258 228 234 237 209 235 243 261 252 248 254 257 249 251 252 253 257 259 253 249 248 242 241 242 240 236 231 228 226 226 228 228 226 226 227 226 226 229
234 248 244 239 235 235 257 242 236 238 237 239 174 260 236 235 240 236 249 249 254 253 255 259 257 254 253 247 239 241 240 237 234 228 226 227 229 227 229 230 229 227 228 229
239 234 223 229 234 229 246 268 276 235 233 246 215 257 254 235 237 234 239 246 246 251 254 253 256 259 255 251 243 246 243 238 233 231 228 228 229 232 235 233 230 228 228 229
248 255 251 240 252 239 227 239 261 250 243 247 235 226 258 211 225 236 233 238 239 242 250 255 257 260 263 260 251 248 243 239 233 231 229 230 229 231 230 230 229 227 227 229
256 253 253 217 227 162 190 208 230 216 217 237 223 216 231 213 215 225 232 233 241 240 244 250 258 260 256 253 254 244 240 237 233 231 230 231 231 232 233 231 230 226 226 226
293 323 153 189 226 161 181 201 209 232 213 219 163 212 226 224 236 244 235 243 256 251 250 254 259 262 260 255 252 248 241 238 234 233 232 231 232 231 231 231 232 231 230 232
299 267 272 251 204 199 197 228 140 346 339 99 192 278 304 191 223 233 239 246 254 273 268 264 264 261 259 256 253 254 246 238 238 234 231 229 229 228 228 228 230 231 232 231
285 295 244 301 176 191 185 152 160 186 273 221 242 267 225 251 217 232 244 267 294 295 286 277 269 261 255 254 256 253 249 244 240 234 231 229 227 226 226 225 227 227 227 227
279 227 288 330 300 192 166 178 182 187 202 97 348 275 269 241 259 279 338 339 331 319 319 306 293 281 269 254 247 242 238 237 234 231 228 226 223 222 221 221 222 224 226 224
264 288 288 289 267 201 249 155 143 152 175 120 132 273 331 328 326 305 338 338 334 330 334 332 320 311 293 264 244 235 233 234 233 231 228 222 216 214 213 214 217 221 221 219
310 320 319 332 4 106 322 199 165 110 87 192 143 259 359 6 15 357 330 353 347 347 347 345 333 320 292 265 247 234 228 229 229 225 217 211 207 205 205 209 212 213 212 214
336 287 211 279 291 305 303 7 7 152 147 180 232 347 352 355 351 345 349 350 350 344 347 336 331 311 277 243 230 224 215 214 212 204 199 196 196 197 201 205 206 209 212 217
70 279 260 288 298 294 24 19 30 67 18 167 291 91 358 345 325 346 343 349 355 348 338 339 323 288 193 165 166 168 173 173 177 179 182 184 188 192 197 201 205 209 214 219
354 292 315 294 49 72 54 31 46 48 19 38 29 74 9 324 328 353 356 356 356 351 343 317 292 190 173 161 155 163 165 166 172 178 183 187 191 195 197 202 208 213 217 221
264 286 345 274 64 253 32 13 20 80 39 343 36 322 321 331 353 359 357 356 348 344 341 317 264 219 197 175 169 180 177 182 182 185 188 190 192 196 203 209 214 216 219 224
228 73 249 282 339 47 177 329 286 91 52 29 1 341 333 317 285 39 14 357 350 344 343 326 276 230 215 190 189 190 190 190 193 192 193 199 204 203 203 205 210 219 227 230
204 170 287 350 31 195 7 11 352 2 26 21 1 350 347 346 121 209 358 359 354 349 344 334 281 234 223 216 215 217 198 188 186 192 195 197 198 198 203 209 214 221 227 231
167 208 351 338 70 32 305 326 321 349 4 11 13 353 347 341 22 328 343 357 1 2 358 352 331 234 219 208 205 202 197 192 188 186 191 200 204 203 205 215 219 225 228 230
7 12 202 288 94 323 343 318 328 62 274 351 357 340 345 355 322 319 344 2 8 5 10 17 61 168 185 191 189 196 197 195 200 201 202 205 207 204 208 211 217 229 232 233
8 325 13 5 59 317 342 10 64 285 320 338 348 351 344 349 350 353 359 6 11 18 24 33 74 144 161 182 201 216 212 205 210 213 206 203 202 203 209 216 216 224 232 232
26 1 348 9 81 95 58 77 358 357 326 341 345 352 355 0 1 359 1 6 12 18 20 31 39 139 188 201 206 220 219 211 206 204 204 208 220 225 220 216 212 213 217 218
355 10 35 207 75 140 71 3 3 357 347 349 1 357 360 2 8 10 8 6 10 13 14 18 20 2 299 222 217 219 216 210 212 215 218 224 214 214 212 212 207 204 205 203
253 335 324 45 56 100 106 11 355 356 359 6 15 9 7 8 13 13 13 14 10 10 14 17 24 21 13 360 213 196 191 237 232 227 224 220 219 218 209 202 196 191 185 182
298 219 7 278 133 300 314 339 352 4 8 13 13 22 23 20 19 15 10 11 11 10 6 7 4 352 3 331 285 245 225 221 229 231 226 212 199 204 201 194 186 183 181 176